Location: *
(58.7167°N, 26.1833°E)
Time: 11:31:56
(UTC+00:00)

SL-16 R/B - Pass Details

Date: 25 August 2019
Orbit: 842 x 846 km, 71.0° (Epoch: 20 October)

Event Time Altitude Azimuth Distance (km) Brightness Sun altitude
Rises 21:20:03 0° 320° (NW) 3,418 6.5 -19.7°
Reaches altitude 10° 21:22:56 10° 307° (NW) 2,479 5.3 -19.8°
Maximum altitude 21:27:20 24° 256° (WSW) 1,697 3.7 -19.9°
Enters shadow 21:29:39 18° 223° (SW) 1,939 3.8 -20.0°
